Location: Lewisville
(33.0462°N, 96.9942°W)
Time: 00:45:12
(UTC-05:00)

X-37B - Pass Details

Date: 24 March 2021
Orbit: 386 x 389 km, 45.0° (Epoch: 08 May)

Event Time Altitude Azimuth Distance (km) Brightness Sun altitude
Rises 20:37:14 0° 307° (NW) 2,266 5.7 -12.2°
Reaches altitude 10° 20:39:20 10° 312° (NW) 1,411 4.4 -12.6°
Maximum altitude 20:42:27 54° 31° (NNE) 476 0.8 -13.2°
Enters shadow 20:43:53 27° 97° (E) 774 1.5 -13.5°
